Location: Linton
(52.0940°N, 0.2850°E)
Time: 07:02:59
(UTC+00:00)

ISS - Visible Passes

Search period start: 22 November 2017 00:00
Search period end: 02 December 2017 00:00
Orbit: 402 x 407 km, 51.6° (Epoch: 22 November)

Date Brightness Start Highest point End Pass type
(mag) Time Alt. Az. Time Alt. Az. Time Alt. Az.
28 Nov -0.8 18:50:18 10° SSW 18:50:32 11° SSW 18:50:32 11° SSW visible
29 Nov -1.9 17:58:31 10° SSW 18:00:26 19° SSE 18:00:26 19° SSE visible
30 Nov -1.5 17:07:12 10° S 17:08:52 13° SE 17:10:16 11° ESE visible
30 Nov -1.5 18:41:35 10° SW 18:42:55 21° SW 18:42:55 21° SW visible
01 Dec -2.8 17:49:29 10° SW 17:52:28 33° SSE 17:52:42 33° SE visible
